Regional Weather Roundup
Issued by NWS

Home | Current Version | Previous Version | Text Only | Print | Product List | Glossary Off
Versions: 1 2 3 4 5 6 7 8 9 10 11 12 13 14 15 16 17 18 19 20 21 22 23 24 25 26 27 28 29 30 31 32 33 34 35 36 37 38 39 40 41 42 43 44 45 46 47 48 49 50

000
ASUS43 KFSD 270410
RWRSD

WEATHER ROUNDUP FOR SOUTH DAKOTA
NATIONAL WEATHER SERVICE SIOUX FALLS SD
1000 PM CST SUN FEB 26 2017

NOTE: "FAIR" INDICATES FEW OR NO CLOUDS BELOW 12,000 FEET WITH NO
SIGNIFICANT WEATHER AND/OR OBSTRUCTIONS TO VISIBILITY.


SDZ001>005-009-010-012>017-270500-
NORTHWEST AND NORTH CENTRAL SOUTH DAKOTA

CITY           SKY/WX    TMP DP  RH WIND       PRES   REMARKS
BUFFALO          N/A     22  18  85 NE8       29.69F WCI  12
FAITH            N/A     26  23  88 NE6       29.79R WCI  19
MOBRIDGE       FAIR      28  24  85 N8        29.80R WCI  20
$$

SDZ012>016-024>037-041>051-057-063-072>074-270500-
SOUTHWEST AND SOUTH CENTRAL SOUTH DAKOTA

CITY           SKY/WX    TMP DP  RH WIND       PRES   REMARKS
RAPID CTY ARPT FAIR      25  18  74 NW6       29.76S WCI  18
PIERRE         CLOUDY    32  15  49 SW9       29.82R WCI  24
CUSTER         FAIR      17   6  62 CALM      29.69S
ELLSWORTH AFB  FAIR      26  16  67 CALM      29.75F
PHILIP         FAIR      23  14  68 W5        29.82R WCI  17
PINE RIDGE     FAIR      12   7  80 CALM      29.82S
SPEARFISH      FAIR      23  10  58 SE5G12    29.73S WCI  17
WINNER         FAIR      27  16  63 SW12      29.86R WCI  17
$$

SDZ004>011-016>023-039-040-270500-
NORTHEAST SOUTH DAKOTA

CITY           SKY/WX    TMP DP  RH WIND       PRES   REMARKS
ABERDEEN       CLOUDY    26  21  81 E3        29.84R
WATERTOWN      FAIR      27  22  81 SE6       29.83R WCI  20
BROOKINGS      FAIR      28  22  78 SW12      29.85  WCI  18
SISSETON         N/A     23  19  85 SE9       29.88S WCI  13
$$

SDZ017-020-022-023-036>040-048>070-270500-
SOUTHEAST SOUTH DAKOTA

CITY           SKY/WX    TMP DP  RH WIND       PRES   REMARKS
SIOUX FALLS    FAIR      27  22  81 S9        29.91R WCI  18
HURON          FAIR      28  21  75 SW9       29.85R WCI  19
CHAMBERLAIN    FAIR      29  20  69 SW10      29.86R WCI  20
MITCHELL       FAIR      31  22  69 S10       29.88R WCI  22
YANKTON        FAIR      28  16  59 S6        29.93S WCI  22
$$

ABBREVIATIONS USED IN REMARKS
   TC - TEMPERATURE IN CELSIUS
  WCI - WIND CHILL INDEX
   HX - HEAT INDEX
  VSB - VISIBILITY




USA.gov is the U.S. government's official web portal to all federal, state and local government web resources and services.